Location: Godiavel Galaoual
(15.2485°N, 12.6604°W)
Time: 00:00:47
(UTC+00:00)

Transit 4A - Pass Details

Date: 13 June 2021
Orbit: 872 x 972 km, 66.8° (Epoch: 29 July)

Event Time Altitude Azimuth Distance (km) Brightness Sun altitude
Rises 11:59:46 0° 237° (WSW) 3,599 10.8 75.6°
Reaches altitude 10° 12:03:17 10° 257° (WSW) 2,636 10.3 76.2°
Maximum altitude 12:07:07 17° 296° (WNW) 2,148 10.0 77.0°
Drops below altitude 10° 12:10:54 10° 335° (NNW) 2,592 10.4 77.7°
Sets 12:14:21 0° 355° (N) 3,514 11.0 78.3°
